Location: Bay Shore Mobile Home Park
(38.5762°N, 75.0841°W)
Time: 09:24:08
(UTC+00:00)

Cosmos 371 Rocket - Pass Details

Date: 15 November 2025
Orbit: 674 x 690 km, 74.0° (Epoch: 05 December)

Event Time Altitude Azimuth Distance (km) Brightness Sun altitude
Rises 23:23:00 0° 185° (S) 3,021 6.8 -18.8°
Reaches altitude 10° 23:25:19 10° 181° (S) 2,113 5.9 -19.2°
Maximum altitude 23:29:57 55° 105° (ESE) 822 3.3 -20.1°
Enters shadow 23:31:02 44° 59° (ENE) 942 3.5 -20.4°
